Back to catalog

FENGYUN 1C DEB

AliveSSO
NORAD 29932·DEBRIS·🇨🇳 China

Launched May 10, 1999 from Taiyuan Satellite Launch Center

Loading…

Next Passes (next 24 hours)

TLE

FreshSource: Space-Track

Epoch: Sep 14, 2026, 12:29 UTC

1 29932U 99025JE  26257.52032325  .00000337  00000-0  18748-3 0  9998
2 29932  98.6313 265.1134 0037385 359.4064 153.6107 14.17061137 14342

Track FENGYUN 1C DEB in real time with AllMySat

Download on the App Store